Powrót do katalogu

COSMOS 2251 DEB

AktywnyLEO
NORAD 35786·DEBRIS·🇷🇺 Russia

Wystrzelony Jun 16, 1993 z Plesetsk Cosmodrome

Loading…

Następne Przeloty (najbliższe 24 godziny)

TLE

Starzejące sięSource: Space-Track

Epoka: Sep 12, 2026, 06:43 UTC

1 35786U 93036ASG 26255.28023818  .00003229  00000-0  55310-3 0  9995
2 35786  74.0104 234.5726 0036982 291.5133  68.2096 14.68784873774216

Śledź COSMOS 2251 DEB w czasie rzeczywistym z AllMySat

Download on the App Store